Regional Weather Roundup
Issued by NWS Grand Forks, ND

Home | Current Version | Previous Version | Graphics & Text | Print | Product List | Glossary On
Versions: 1 2 3 4 5 6 7 8 9 10 11 12 13 14 15 16 17 18 19 20 21 22 23 24 25 26 27 28 29 30 31 32 33 34 35 36 37 38 39 40 41 42 43 44 45 46 47 48 49 50
000
ASUS43 KFGF 251631
RWRFGF
PRAIRIE TO PINES  WEATHER ROUNDUP
NATIONAL WEATHER SERVICE EASTERN NORTH DAKOTA/GRAND FORKS ND
1100 AM CDT SAT MAR 25 2017

 **SATELLITE DATA USED TO AUGMENT SKY COVER AT AUTOMATED STATIONS**
 *****  WEATHER ACROSS EASTERN NORTH DAKOTA  *****

CITY           SKY/WX    TMP DP  RH WIND       PRES   REMARKS
GRAND FORKS    PTSUNNY   38  34  85 S16G23    30.15S
GRAND FRKS AFB PTSUNNY   39  32  75 S17       30.14S
DEVILS LAKE    CLOUDY    34  31  88 S15       30.08S WCI  24
FARGO          CLOUDY    36  31  82 S15G21    30.18S
WAHPETON ARPT  CLOUDY    34  30  86 SE13      30.18F WCI  25
$$

 ***** WEATHER ACROSS CENTRAL AND WESTERN NORTH DAKOTA  *****

CITY           SKY/WX    TMP DP  RH WIND       PRES   REMARKS
BISMARCK       CLOUDY    36  33  89 S18       30.05S
MINOT          CLOUDY    36  31  82 SE14      29.92S
JAMESTOWN      CLOUDY    32  30  92 S18       30.09F WCI  20
MINOT AFB      LGT RAIN  35  31  87 S15       29.91S
GARRISON         N/A     34  31  88 S18G25    29.96S WCI  23
WILLISTON      FAIR      48  35  60 S5        29.87R
DICKINSON      CLOUDY    41  31  67 S17       29.91R
HETTINGER      FAIR      40  32  73 SE12      29.96R
$$

 *****  OTHER AIRPORT OBSERVATIONS IN OUR AREA  *****

CITY           SKY/WX    TMP DP  RH WIND       PRES   REMARKS
WALHALLA       NOT AVBL
GRAFTON AIRPOR FAIR      37  34  87 S22G28    30.16S
VALLEY CITY AR MIX PCPN  32  32 100 S17G24    30.15R WCI  21
CANDO          NOT AVBL
CAVALIER APRT    N/A     36  32  87 S17G24    30.11F
GWINNER        CLOUDY    34  32  93 MISG      30.15F
SHEYENNE NWR     N/A     33  31  92 S14       29.95S WCI  23
ROLLA          CLOUDY    30  30 100 S21G29    30.00S WCI  17
 ***** THE ABOVE OBSERVATIONS ARE NON NWS ARE NOT QUALITY
       CONTROLLED AND MAY MIS-REPORT RAIN FOR SNOW...
$$

  *****  WEATHER ACROSS NORTHERN MINNESOTA  *****

CITY           SKY/WX    TMP DP  RH WIND       PRES   REMARKS
FLAG ISLAND    CLOUDY    34  30  86 S16       30.19F WCI  23
WARROAD        CLOUDY    39  30  70 SE14G20   30.20S
ROSEAU         PTSUNNY   37  30  75 S14G22    30.18S
HALLOCK        FAIR      37  34  87 S15       30.15F
THF RVR FALLS  CLOUDY   N/A N/A N/A SE13G21   30.19S
BAUDETTE       CLOUDY    37  29  72 SE13      30.21F
WASKISH        CLOUDY    37  28  70 S9G21     30.21F
CROOKSTON      CLOUDY    37  34  87 S15G23    30.18S
STEPHEN NDAWN    N/A     37  32  81 S17         N/A
GREENBUSH NDAW   N/A     36  30  80 S15         N/A
$$
  *****  WEATHER ACROSS CENTRAL AND WEST MINNESOTA  *****

CITY           SKY/WX    TMP DP  RH WIND       PRES   REMARKS
FOSSTON        CLOUDY    37  32  81 SE10      30.18S
BEMIDJI        CLOUDY    35  28  76 SE13G18   30.20F
PARK RAPIDS    CLOUDY    36  25  64 E12       30.19F
ELBOW LAKE     CLOUDY    33  29  86 SE9       30.19S
WADENA         CLOUDY    36  28  75 E12       30.18F
DETROIT LAKES  PTSUNNY   36  30  80 SE18      30.17F
MOORHEAD       CLOUDY    34  30  86 SE10      30.20R
FERGUS FALLS   CLOUDY    34  28  80 SE12      30.22F
MORRIS MN      CLOUDY    36  30  80 SE8       30.17S
STAPLES        CLOUDY    36  27  69 E8        30.19F
$$
  *****  WEATHER ELSEWHERE ACROSS MINNESOTA  *****

CITY           SKY/WX    TMP DP  RH WIND       PRES   REMARKS
DULUTH         CLOUDY    32  30  92 E17       30.25S WCI  21
INTRNTL FALLS  CLOUDY    36  26  67 SE15      30.25F
ELY            CLOUDY    30  23  74 E8        30.29S WCI  23
CLOQUET        CLOUDY    34  28  80 E17G26    30.24S WCI  23
WHEATON        CLOUDY    36  30  80 SE14      30.19F
BRAINERD       CLOUDY    36  27  69 E7        30.22S
HIBBING        CLOUDY    32  26  78 E13G22    30.26S WCI  22
ALEXANDRIA     CLOUDY    33  29  85 E10       30.18F WCI  25
SAINT CLOUD    CLOUDY    35  31  85 E12G20    30.19F
MINNEAPOLIS    CLOUDY    39  31  72 NE13      30.18S
$$

  *****  WEATHER ACROSS SOUTH DAKOTA  *****

CITY           SKY/WX    TMP DP  RH WIND       PRES   REMARKS
SIOUX FALLS    CLOUDY    39  36  89 NE16      30.10S
BROOKINGS      CLOUDY    34  32  92 E8        30.11F
WATERTOWN      CLOUDY    33  31  92 E9        30.12F
HURON          CLOUDY    35  31  85 SE8       30.13S
SISSETON         N/A     35  32  88 S14       30.15F
ABERDEEN       CLOUDY    34  29  82 S12       30.14S
MITCHELL       CLOUDY    36  33  89 E9        30.12F
PIERRE         CLOUDY    34  32  92 S12       30.08R
MOBRIDGE       CLOUDY    35  30  82 S16       30.05S
RAPID CITY     FAIR      51  32  48 S14       29.92F
$$

  *****  SOME WEATHER IN NEARBY STATES *****

CITY           SKY/WX    TMP DP  RH WIND       PRES   REMARKS
GLASGOW MT     FAIR      51  27  39 W25G33    29.89R
GREAT FALLS MT FAIR      45  23  42 SW14      29.96R
CHEYENNE WY    FAIR      50  27  40 S13       30.03F
SCOTTSBLUFF NE FAIR      50  33  52 SE8       30.01F
OMAHA NE       LGT RAIN  42  37  82 N16       29.98S
DES MOINES IA  LGT RAIN  41  39  93 NE16      29.95S FOG
DAVENPORT IA   CLOUDY    42  41  96 E17G25    29.94S FOG
CHICAGO IL     LGT RAIN  42  39  89 NE17      30.04F FOG
EAU CLAIRE WI  CLOUDY    38  31  76 E18G26    30.18F
LA CROSSE WI   CLOUDY    40  34  79 NE10      30.13S
$$

  *****  SOME NATIONAL WEATHER *****

CITY           SKY/WX    TMP DP  RH WIND       PRES   REMARKS
LA GUARDIA NY  CLOUDY    55  37  50 E9        30.17R
RALEIGH NC     PTSUNNY   69  51  52 W14G22    30.32F
ATLANTA GA     PTSUNNY   69  54  58 S12       30.26F
NEW ORLEANS LA PTSUNNY   76  66  71 S17G25    30.08F
OKLAHOMA CITY  CLOUDY    50  42  74 NW16      30.00R
ALBUQUERQUE NM PTSUNNY   50  25  37 NW3       30.15F
SALT LAKE CITY RAIN      44  42  93 NW14      30.02S FOG
LOS ANGELES CA PTSUNNY   59  53  80 W10       30.13S
BOISE ID       FAIR      40  37  89 CALM      30.10S
SEATTLE WA     FAIR      45  41  86 S10       30.10S
$$

*** WEATHER ACROSS MANITOBA...SASKATCHEWAN AND ONTARIO ***
                ***ONTARIO***

CITY           SKY/WX    TMP DP  RH WIND       PRES   REMARKS
GERALDTON      MOSUNNY   21  -4  33 SE12      30.44F WCI   9
THUNDER BAY    PTSUNNY   28  19  69 E13G18    30.41F WCI  18
SIOUX LOOKOUT  CLOUDY    34  14  44 S9        30.29F
TORONTO        LGT RAIN  36  34  93 E9        30.31S
BIG TROUT LK   SUNNY     19   0  42 SE9       30.37F WCI   9
PICKLE LAKE    MOSUNNY   25  -4  28 SE10      30.35S WCI  15
DRYDEN         CLOUDY    32  21  64 SE13G18   30.26S WCI  22
KENORA         PTSUNNY   36  28  75 S13       30.20F
$$
                *** MANITOBA***

CITY           SKY/WX    TMP DP  RH WIND       PRES   REMARKS
BRANDON        CLOUDY    32  28  86 SE21      29.93F WCI  20
DAUPHIN        CLOUDY    32  28  86 SE10      29.86F WCI  24
ISLAND LAKE    CLOUDY    21   7  53 SE9       30.17F WCI  11
PILOT MOUND      N/A     32  30  93 S24G31      N/A  WCI  19
THE PAS        FRZ RAIN  28  27  93 SE21G29   29.76F WCI  15
THOMPSON       CLOUDY    16   0  48 E7        30.06F WCI   6
WINNIPEG       CLOUDY    37  30  75 S28G33    30.11S
LYNN LAKE      PTSUNNY   16   3  57 E8        29.97F WCI   5
CHURCHILL      PTSUNNY    7  -4  61 S9        30.30F WCI  -7
GILLAM         CLOUDY    18  -4  38 SE6       30.21F WCI   9
$$
                ***SASKATCHEWAN***

CITY           SKY/WX    TMP DP  RH WIND       PRES   REMARKS
ESTEVAN        PTSUNNY   41  34  75 S10       29.82F
KINDERSLEY     MOSUNNY   41  36  81 W17G23    29.73R
LLOYDMINSTER   CLOUDY    32  32 100 NW12      29.71R WCI  23
PRINCE ALBERT  CLOUDY    32  30  93 NE8       29.61R WCI  25
REGINA         PTSUNNY   50  34  53 W16       29.74S
YORKTON        SUNNY     36  32  87 S21G28    29.74F
N. BATTLEFORD  CLOUDY    36 N/A N/A NW9       29.68R
LA RONGE       LGT SNOW  21  19  93 NE12G17   29.75S WCI   9
SASKATOON      MOSUNNY   41  36  81 W16       29.62R
SWIFT CURRENT  SUNNY     45  32  61 W25G36    29.76R
$$
NOTE: THESE ARE AUTOMATED STATIONS WITH LIMITED QUALITY CONTROL
      "FAIR" INDICATES FEW OR NO CLOUDS BELOW 12,000 FEET WITH NO
      SIGNIFICANT WEATHER AND/OR OBSTRUCTIONS TO VISIBILITY.
      SKY/WX - SKY CONDITION AND SIGNIFICANT WEATHER.
      TMP - AIR TEMPERATURE.    DP   - DEWPOINT TEMPERATURE.
      RH  - RELATIVE HUMIDITY.  PRES - PRESSURE.
      HX  - HEAT INDEX.         WCI  - WIND CHILL INDEX.
$




USA.gov is the U.S. government's official web portal to all federal, state and local government web resources and services.